When you browse on this site, cookies collect data to enhance your experience and personalize the content and advertising you see.
Visit our Privacy Policy to learn more. By continuing to use the site, you agree to this use of cookies and data.
  • In Lithuania
  • List of Countries
  • For 7 days
  • Water Temperature
  • Satellite Maps
  • Weather Map
  • Weather Widgets
  • user-avatar
    Login

    Hourly Weather Loyki

    Today, 25 April, Thursday

    Time Temperature Precipitation Wind Pressure Humidity
    00:00 +12°C° 0 mm 5 mps 752 mmHg 64%
    01:00 +10°C° 0 mm 5 mps 752 mmHg 66%
    02:00 +11°C° 0 mm 4 mps 752 mmHg 68%
    03:00 +10°C° 0 mm 4 mps 752 mmHg 69%
    04:00 +10°C° 0 mm 4 mps 752 mmHg 70%
    05:00 +8°C° 0 mm 4 mps 752 mmHg 71%
    06:00 +10°C° 0 mm 4 mps 752 mmHg 69%
    07:00 +10°C° 0 mm 5 mps 752 mmHg 67%
    08:00 +12°C° 0 mm 5 mps 752 mmHg 66%
    09:00 +14°C° 0 mm 5 mps 752 mmHg 63%
    10:00 +16°C° 0 mm 5 mps 751 mmHg 59%
    11:00 +19°C° 0 mm 5 mps 751 mmHg 56%
    12:00 +20°C° 0 mm 5 mps 751 mmHg 54%
    13:00 +22°C° 0 mm 6 mps 751 mmHg 51%
    14:00 +23°C° 0 mm 6 mps 751 mmHg 49%
    15:00 +23°C° 0.2 mm 5 mps 750 mmHg 51%
    16:00 +22°C° 0.2 mm 5 mps 750 mmHg 53%
    17:00 +22°C° 0.2 mm 5 mps 750 mmHg 55%
    18:00 +20°C° 0.2 mm 4 mps 750 mmHg 62%
    19:00 +19°C° 0.2 mm 4 mps 750 mmHg 69%
    20:00 +17°C° 0.2 mm 3 mps 750 mmHg 77%
    21:00 +16°C° 0 mm 3 mps 750 mmHg 79%
    22:00 +15°C° 0 mm 4 mps 749 mmHg 82%
    23:00 +14°C° 0 mm 4 mps 749 mmHg 85%

    Tomorrow, 26 April, Friday

    Time Temperature Precipitation Wind Pressure Humidity
    00:00 +13°C° 0.1 mm 4 mps 749 mmHg 88%
    01:00 +13°C° 0.1 mm 3 mps 749 mmHg 90%
    02:00 +12°C° 0.1 mm 3 mps 749 mmHg 93%
    03:00 +12°C° 0.2 mm 3 mps 749 mmHg 94%
    04:00 +12°C° 0.2 mm 3 mps 749 mmHg 95%
    05:00 +11°C° 0.2 mm 3 mps 749 mmHg 96%
    06:00 +13°C° 0 mm 3 mps 748 mmHg 92%
    07:00 +14°C° 0 mm 4 mps 748 mmHg 88%
    08:00 +15°C° 0 mm 4 mps 748 mmHg 85%
    09:00 +18°C° 0 mm 4 mps 748 mmHg 77%
    10:00 +20°C° 0 mm 5 mps 747 mmHg 70%
    11:00 +22°C° 0 mm 5 mps 747 mmHg 63%
    12:00 +23°C° 0 mm 5 mps 747 mmHg 59%
    13:00 +25°C° 0 mm 5 mps 746 mmHg 54%
    14:00 +26°C° 0 mm 6 mps 746 mmHg 49%
    15:00 +26°C° 0.2 mm 5 mps 746 mmHg 52%
    16:00 +25°C° 0.2 mm 5 mps 745 mmHg 55%
    17:00 +25°C° 0.2 mm 5 mps 745 mmHg 58%
    18:00 +22°C° 0.1 mm 4 mps 745 mmHg 63%
    19:00 +21°C° 0.1 mm 4 mps 744 mmHg 68%
    20:00 +19°C° 0.1 mm 4 mps 744 mmHg 73%
    21:00 +18°C° 0.6 mm 4 mps 744 mmHg 79%
    22:00 +17°C° 0.6 mm 4 mps 744 mmHg 84%
    23:00 +16°C° 0.6 mm 5 mps 744 mmHg 89%

    Day after tomorrow, 27 April, Saturday

    Time Temperature Precipitation Wind Pressure Humidity
    00:00 +15°C° 0.2 mm 4 mps 744 mmHg 90%
    01:00 +15°C° 0.2 mm 4 mps 744 mmHg 92%
    02:00 +16°C° 0.2 mm 3 mps 743 mmHg 93%
    03:00 +14°C° 0.1 mm 3 mps 743 mmHg 93%
    04:00 +14°C° 0.1 mm 3 mps 743 mmHg 93%
    05:00 +14°C° 0.1 mm 3 mps 743 mmHg 93%
    06:00 +15°C° 0 mm 4 mps 743 mmHg 86%
    07:00 +17°C° 0 mm 4 mps 743 mmHg 80%
    08:00 +17°C° 0 mm 5 mps 743 mmHg 73%
    09:00 +19°C° 0 mm 5 mps 743 mmHg 74%
    10:00 +19°C° 0 mm 5 mps 743 mmHg 74%
    11:00 +20°C° 0 mm 6 mps 743 mmHg 75%
    12:00 +20°C° 0 mm 5 mps 743 mmHg 72%
    13:00 +20°C° 0 mm 5 mps 743 mmHg 69%
    14:00 +21°C° 0 mm 5 mps 743 mmHg 66%
    15:00 +20°C° 0 mm 5 mps 743 mmHg 66%
    16:00 +20°C° 0 mm 5 mps 743 mmHg 67%
    17:00 +19°C° 0 mm 5 mps 743 mmHg 67%
    18:00 +18°C° 0 mm 4 mps 744 mmHg 72%
    19:00 +17°C° 0 mm 3 mps 744 mmHg 78%
    20:00 +15°C° 0 mm 2 mps 744 mmHg 84%
    21:00 +15°C° 0 mm 2 mps 744 mmHg 87%
    22:00 +14°C° 0 mm 2 mps 744 mmHg 90%
    23:00 +13°C° 0 mm 2 mps 744 mmHg 92%

    28 April, Sunday

    Time Temperature Precipitation Wind Pressure Humidity
    00:00 +13°C° 0 mm 2 mps 744 mmHg 93%
    01:00 +13°C° 0 mm 2 mps 744 mmHg 94%
    02:00 +12°C° 0 mm 2 mps 744 mmHg 95%
    03:00 +12°C° 0 mm 2 mps 744 mmHg 96%
    04:00 +12°C° 0 mm 2 mps 744 mmHg 96%
    05:00 +12°C° 0 mm 2 mps 744 mmHg 97%
    06:00 +12°C° 0 mm 3 mps 744 mmHg 92%
    07:00 +12°C° 0 mm 3 mps 744 mmHg 86%
    08:00 +13°C° 0 mm 3 mps 744 mmHg 81%
    09:00 +14°C° 0.1 mm 3 mps 744 mmHg 78%
    10:00 +14°C° 0.1 mm 3 mps 744 mmHg 74%
    11:00 +16°C° 0.1 mm 3 mps 745 mmHg 71%
    12:00 +17°C° 0 mm 4 mps 744 mmHg 68%
    13:00 +19°C° 0 mm 4 mps 744 mmHg 64%
    14:00 +20°C° 0 mm 4 mps 744 mmHg 61%
    15:00 +19°C° 0.1 mm 4 mps 744 mmHg 65%
    16:00 +19°C° 0.1 mm 4 mps 744 mmHg 68%
    17:00 +18°C° 0.1 mm 4 mps 744 mmHg 72%
    18:00 +18°C° 0.6 mm 4 mps 744 mmHg 77%
    19:00 +17°C° 0.6 mm 4 mps 744 mmHg 83%
    20:00 +15°C° 0.6 mm 4 mps 744 mmHg 88%
    21:00 +14°C° 1.5 mm 5 mps 745 mmHg 89%
    22:00 +14°C° 1.5 mm 5 mps 745 mmHg 90%
    23:00 +14°C° 1.5 mm 6 mps 745 mmHg 91%

    29 April, Monday

    Time Temperature Precipitation Wind Pressure Humidity
    00:00 +13°C° 0.5 mm 6 mps 745 mmHg 91%
    01:00 +11°C° 0.5 mm 6 mps 745 mmHg 91%
    02:00 +11°C° 0.5 mm 6 mps 745 mmHg 91%
    03:00 +10°C° 0.4 mm 6 mps 745 mmHg 90%
    04:00 +10°C° 0.4 mm 6 mps 745 mmHg 90%
    05:00 +10°C° 0.4 mm 6 mps 746 mmHg 90%
    06:00 +9°C° 0.4 mm 6 mps 746 mmHg 90%
    07:00 +8°C° 0.4 mm 7 mps 746 mmHg 89%
    08:00 +6°C° 0.4 mm 7 mps 747 mmHg 89%
    09:00 +6°C° 1.2 mm 7 mps 747 mmHg 87%
    10:00 +5°C° 1.2 mm 7 mps 747 mmHg 86%
    11:00 +5°C° 1.2 mm 7 mps 748 mmHg 85%
    12:00 +6°C° 0.3 mm 7 mps 748 mmHg 82%
    13:00 +8°C° 0.3 mm 7 mps 748 mmHg 78%
    14:00 +9°C° 0.3 mm 6 mps 748 mmHg 74%
    15:00 +9°C° 0 mm 6 mps 748 mmHg 72%
    16:00 +10°C° 0 mm 6 mps 748 mmHg 70%
    17:00 +10°C° 0 mm 5 mps 748 mmHg 68%
    18:00 +9°C° 0 mm 5 mps 748 mmHg 68%
    19:00 +10°C° 0 mm 4 mps 748 mmHg 67%
    20:00 +10°C° 0 mm 3 mps 748 mmHg 67%
    21:00 +8°C° 0 mm 4 mps 749 mmHg 68%
    22:00 +7°C° 0 mm 4 mps 749 mmHg 70%
    23:00 +6°C° 0 mm 4 mps 749 mmHg 71%

    30 April, Tuesday

    Time Temperature Precipitation Wind Pressure Humidity
    00:00 +6°C° 0 mm 4 mps 749 mmHg 71%
    01:00 +5°C° 0 mm 4 mps 749 mmHg 71%
    02:00 +5°C° 0 mm 5 mps 748 mmHg 71%
    03:00 +5°C° 0 mm 5 mps 748 mmHg 72%
    04:00 +3°C° 0 mm 5 mps 749 mmHg 72%
    05:00 +3°C° 0 mm 6 mps 749 mmHg 72%
    06:00 +4°C° 0 mm 6 mps 749 mmHg 70%
    07:00 +5°C° 0 mm 7 mps 749 mmHg 68%
    08:00 +5°C° 0 mm 7 mps 749 mmHg 66%
    09:00 +6°C° 0 mm 7 mps 749 mmHg 66%
    10:00 +8°C° 0 mm 7 mps 749 mmHg 65%
    11:00 +8°C° 0 mm 7 mps 749 mmHg 64%
    12:00 +9°C° 0 mm 7 mps 748 mmHg 63%
    13:00 +9°C° 0 mm 7 mps 748 mmHg 62%
    14:00 +10°C° 0 mm 7 mps 748 mmHg 62%
    15:00 +10°C° 0 mm 7 mps 748 mmHg 62%
    16:00 +10°C° 0 mm 6 mps 748 mmHg 63%
    17:00 +10°C° 0 mm 6 mps 748 mmHg 64%
    18:00 +9°C° 0 mm 5 mps 748 mmHg 66%
    19:00 +8°C° 0 mm 4 mps 748 mmHg 68%
    20:00 +8°C° 0 mm 3 mps 748 mmHg 71%
    21:00 +8°C° 0 mm 3 mps 748 mmHg 71%
    22:00 +7°C° 0 mm 3 mps 748 mmHg 71%
    23:00 +7°C° 0 mm 3 mps 748 mmHg 72%
    Show more